NIMBUS 2 DEB, 28609

Orbit data source: Space-Track

NIMBUS 2 DEB, 28609 is space debris in SSO originally from a launch on Sun, 15 May 1966 UTC launched from the Air Force Western Test Range (AFWTR). Debris objects in space refer to the collection of defunct objects orbiting the Earth. Examples of debris include non-operational satellites, rocket bodies, and fragments generated from explosions, collisions, or faulty payload assembly.

Loading next visibility...
Identifier
28609, 1966-040Y
Orbit
SSO
Country
Flag of USUS
Related business
Manufacturer
Unknown
Mission
Spacecraft
Bus & Motor
Unknown
Mass
Unknown
Launch date (UTC)
1966-05-15 (60 years ago)
Launch vehicle
Unknown
Launch site
Air Force Western Test Range (AFWTR)
Object type
Payload
Rocket body
Debris
Shape & HBR
Unknown shape, 0.1 m
Radar Cross Section
Small (<0.1 m²)

Expand to show TLE details & history
Last TLE update: 1 week ago

TLE from 1 week ago
0 NIMBUS 2 DEB
1 28609U 66040Y   26164.00890488  .00000906  00000-0  14800-2 0  9997
2 28609 100.3409  79.4888 0052002 339.0084  37.2660 13.50307112634622
Epoch: 2026-06-13T00:12Z
TLE epoch observation values (Epoch: 2026-06-13T00:12:49.381Z)
Latitude
16.34399°
Longitude
171.9014°
Altitude
1,042.489 km
Speed
7.347 km/s
True Right ascension
05h 05m 44s
True Declination
16° 15' 18"
Sunlit
Object was in daylight at epoch
Visualization orbit readout
Latitude
Unknown
Longitude
Unknown
Altitude
Unknown
Speed
Unknown
Apparent Right ascension
Unknown
Apparent Declination
Unknown
Sunlit
N/A
Visualization observer readout
Local Sidereal Time
05:23:58
Azimuth
Unknown
Elevation
Unknown
Doppler factor
Unknown
Orbital elements
Apogee altitude
1,107.187 km
Perigee altitude
1,029.74 km
Semi-major axis
7,446.601 km
Eccentricity
0.0052
Inclination
100.3409°
RAAN
79.4888°
Arg. of periapsis
339.0084°
True anomaly
37.6287°
Mean anomaly
37.266°
Eccentric anomaly
37.44716°
Mean motion
3.37758 °/min
Orbital period
106.59 mins
BSTAR
0.00148
Loading maneuver chart data...
Computing Atmospheric mass density...
Loading historical data...
Loading historical data...
Loading historical data...
Loading historical data...
Loading historical data...
Loading historical data...
Loading historical data...

Documentation

Showing up to 5 results
|